Weather History for Klamath Falls, OR

Change the Weather History Date:

Monday, March 11, 2013

  Actual Average Record
Temperature  
Mean Temperature 43 °F 38 °F  
Max Temperature 61 °F 50 °F 70 °F (2005)
Min Temperature 24 °F 26 °F 11 °F (1967)
Degree Days  
Heating Degree Days 22 27  
Month to date heating degree days 294 302  
Since 1 July heating degree days 4985 5143  
Cooling Degree Days 0 0  
Month to date cooling degree days 0 0  
Year to date cooling degree days 0 0  
Moisture  
Dew Point 30 °F    
Average Humidity 64    
Maximum Humidity 92    
Minimum Humidity 33    
Precipitation  
Precipitation 0.00 in 0.03 in 0.39 in (1983)
Month to date precipitation 0.15 0.43  
Year to date precipitation 0.93 4.20  
Sea Level Pressure  
Sea Level Pressure 30.28 in    
Wind  
Wind Speed 2 mph (NNW)    
Max Wind Speed 17 mph    
Max Gust Speed 18 mph    
Visibility 10 miles    
Events      
T = Trace of Precipitation, MM = Missing Value Source: NWS Daily Summary

Daily Weather History Graph

Daily Weather History Graph

Search for Another Location

Airport:

Trip Planner

Search our weather history database for the weather conditions in past years. The results will help you decide how hot, cold, wet, or windy it might be!

Date:

Astronomy

Mar. 11, 2013 Rise Set
Actual Time 7:24 AM PDT 7:09 PM PDT
Civil Twilight 6:57 AM PDT 7:37 PM PDT
Nautical Twilight 6:24 AM PDT 8:09 PM PDT
Astronomical Twilight 5:51 AM PDT 8:42 PM PDT
Moon 7:01 AM PDT (3/11) 7:28 PM PDT (3/11)
Length of Visible Light 12h 40m
Length of Day
11h 44m
Waning Crescent, 0% of the Moon is Illuminated
Mar 11
Waning Crescent
Mar 11
New
Mar 19
First Quarter
Mar 27
Full
Apr 2
Last Quarter

Hourly Weather History & Observations

Time (PDT) Temp. Windchill Dew Point Humidity Pressure Visibility Wind Dir Wind Speed Gust Speed Precip Events Conditions
4:53 AM 28.0 °F - 24.1 °F 85% 30.35 in 10.0 mi Calm Calm - N/A   Clear
5:53 AM 26.1 °F 21.9 °F 23.0 °F 88% 30.35 in 10.0 mi NW 3.5 mph - N/A   Clear
6:01 AM 26.6 °F 22.6 °F 23.0 °F 86% 30.35 in 7.0 mi NW 3.5 mph - N/A   Clear
6:53 AM 25.0 °F - 23.0 °F 92% 30.35 in 7.0 mi Calm Calm - N/A   Partly Cloudy
7:53 AM 25.0 °F - 23.0 °F 92% 30.37 in 10.0 mi Calm Calm - N/A   Scattered Clouds
8:53 AM 35.1 °F - 30.9 °F 85% 30.36 in 10.0 mi Calm Calm - N/A   Scattered Clouds
9:53 AM 41.0 °F - 32.0 °F 70% 30.35 in 10.0 mi Calm Calm - N/A   Mostly Cloudy
10:53 AM 46.9 °F - 33.1 °F 59% 30.34 in 10.0 mi Calm Calm - N/A   Mostly Cloudy
11:53 AM 51.1 °F - 34.0 °F 52% 30.32 in 10.0 mi Calm Calm - N/A   Mostly Cloudy
12:53 PM 53.1 °F - 34.0 °F 48% 30.29 in 10.0 mi Calm Calm - N/A   Mostly Cloudy
1:53 PM 55.9 °F - 28.9 °F 36% 30.27 in 10.0 mi Variable 3.5 mph - N/A   Mostly Cloudy
2:53 PM 59.0 °F - 30.9 °F 35% 30.22 in 10.0 mi Variable 6.9 mph - N/A   Mostly Cloudy
3:53 PM 60.1 °F - 32.0 °F 35% 30.22 in 10.0 mi WNW 3.5 mph - N/A   Mostly Cloudy
4:53 PM 61.0 °F - 33.1 °F 35% 30.20 in 10.0 mi NE 3.5 mph - N/A   Mostly Cloudy
5:53 PM 57.9 °F - 34.0 °F 41% 30.21 in 10.0 mi NNW 13.8 mph - N/A   Mostly Cloudy
6:53 PM 53.1 °F - 33.1 °F 47% 30.22 in 10.0 mi NNW 10.4 mph - N/A   Mostly Cloudy
7:53 PM 46.9 °F - 32.0 °F 56% 30.25 in 10.0 mi NNW 6.9 mph - N/A   Mostly Cloudy
8:53 PM 42.1 °F - 33.1 °F 70% 30.23 in 10.0 mi Calm Calm - N/A   Scattered Clouds
9:53 PM 37.0 °F - 30.9 °F 79% 30.24 in 10.0 mi Calm Calm - N/A   Mostly Cloudy
10:53 PM 37.0 °F - 30.9 °F 79% 30.24 in 10.0 mi Calm Calm - N/A   Clear
11:53 PM 35.1 °F - 30.0 °F 82% 30.24 in 10.0 mi Calm Calm - N/A   Clear